Location: Poughquag
(41.6090°N, 73.6820°W)
Time: 08:21:11
(UTC-04:00)

Courier 1B Rocket - Visible Passes

Search period start: 20 October 2020 00:00
Search period end: 30 October 2020 00:00
Orbit: 920 x 1202 km, 28.2° (Epoch: 19 October)

Date Brightness Start Highest point End Pass type
(mag) Time Alt. Az. Time Alt. Az. Time Alt. Az.
21 Oct 7.3 20:24:41 10° S 20:25:17 11° S 20:25:17 11° S visible
22 Oct 7.4 21:13:46 10° SSW 21:14:34 12° SSW 21:14:34 12° SSW visible
23 Oct 7.0 20:13:54 10° SSW 20:17:25 16° SSE 20:17:25 16° SSE visible
24 Oct 7.2 19:15:01 10° S 19:17:28 12° SSE 19:19:57 10° SE visible
24 Oct 7.1 21:04:10 10° SW 21:06:35 18° SSW 21:06:35 18° SSW visible
25 Oct 6.7 20:03:57 10° SSW 20:09:02 20° SSE 20:09:21 20° SSE visible
25 Oct 7.7 21:55:30 10° SW 21:55:43 11° SW 21:55:43 11° SW visible
26 Oct 7.0 19:04:13 10° SSW 19:08:13 16° SSE 19:12:06 11° SE visible
26 Oct 6.8 20:54:51 10° SW 20:58:28 23° SSW 20:58:28 23° SSW visible
27 Oct 6.5 19:54:26 10° SW 19:59:53 24° SSE 20:01:10 23° SSE visible
27 Oct 7.5 21:46:29 10° WSW 21:47:32 14° SW 21:47:32 14° SW visible
28 Oct 6.8 18:54:18 10° SSW 18:59:03 20° SSE 19:03:52 10° ESE visible
28 Oct 6.6 20:45:43 10° SW 20:50:14 26° SSW 20:50:14 26° SSW visible
29 Oct 6.5 19:45:10 10° SW 19:50:46 26° S 19:52:55 23° SE visible
29 Oct 7.3 21:37:37 10° WSW 21:39:17 16° SW 21:39:17 16° SW visible
